EW3302 Weather Reports


time (UTC)temp
C
wind
direction
speed
KPH
gust
KPH
rain 1hr
cm
rain 24hr
cm
rain mn
cm
humidity
%
barometer
mb
20260503021516 5 338 8.0 14.5 0.03 0.23 0.03 81 1009.6
20260503020516 5 338 8.0 17.7 0.00 0.20 0.00 79 1009.4
20260503015516 6 0 8.0 20.9 0.00 0.20 0.00 79 1009.4
20260503014516 6 338 8.0 19.3 0.00 0.20 0.00 80 1009.4
20260503013536 6 338 11.3 24.1 0.00 0.20 0.00 81 1009.2
20260503012515 6 338 11.3 27.4 0.00 0.20 0.00 82 1009.1
20260503011516 6 338 11.3 19.3 0.00 0.20 0.00 83 1008.9
20260503010515 6 0 12.9 25.7 0.00 0.20 0.00 83 1008.9
20260503005516 7 0 9.7 19.3 0.00 0.20 0.00 83 1008.7
20260503004516 7 0 11.3 24.1 0.00 0.20 0.00 83 1008.5
20260503003536 7 0 9.7 16.1 0.00 0.20 0.00 85 1008.5
20260503002516 8 338 11.3 20.9 0.00 0.20 0.00 86 1008.4
20260503001516 8 0 8.0 16.1 0.00 0.20 0.00 90 1008.2
20260503000516 8 338 1.6 8.0 0.00 0.20 0.00 91 1008.1
20260502235516 8 0 3.2 6.4 0.00 0.20 0.00 91 1008.1
20260502234515 8 315 1.6 3.2 0.00 0.20 0.00 91 1008.0
20260502233515 8 293 1.6 3.2 0.00 0.20 0.00 91 1008.0
20260502232516 8 293 1.6 3.2 0.00 0.20 0.00 90 1007.9
20260502231516 8 0.0 1.6 0.00 0.20 0.00 90 1007.9
20260502230515 8 0.0 3.2 0.00 0.20 0.00 89 1007.8
20260502225516 9 203 1.6 3.2 0.00 0.20 0.00 89 1007.7
20260502224515 9 203 1.6 3.2 0.00 0.20 0.00 88 1007.7
20260502223516 9 203 3.2 4.8 0.00 0.20 0.00 89 1007.7
20260502222535 9 180 1.6 3.2 0.00 0.20 0.00 89 1007.7
20260502221515 9 180 1.6 4.8 0.03 0.20 0.00 88 1007.8
20260502220515 9 225 1.6 4.8 0.03 0.20 0.00 89 1007.7
20260502215517 9 203 3.2 6.4 0.03 0.20 0.20 89 1007.7
20260502214517 9 203 3.2 6.4 0.03 0.20 0.20 89 1007.8
20260502213517 9 0.0 3.2 0.03 0.20 0.20 89 1007.7
20260502212517 9 248 1.6 3.2 0.03 0.20 0.20 89 1007.8
20260502211517 9 248 1.6 4.8 0.00 0.18 0.18 89 1007.9
20260502210537 9 248 1.6 1.6 0.00 0.18 0.18 89 1007.9
20260502205557 9 248 1.6 3.2 0.03 0.18 0.18 89 1007.9
20260502204517 9 248 1.6 4.8 0.03 0.18 0.18 88 1007.9
20260502203517 9 248 1.6 3.2 0.05 0.18 0.18 88 1007.9
20260502202517 9 270 1.6 4.8 0.10 0.18 0.18 87 1008.0
20260502201537 9 270 1.6 3.2 0.15 0.18 0.18 86 1007.8
20260502200517 10 315 1.6 3.2 0.15 0.18 0.18 85 1007.9
20260502195537 10 315 3.2 4.8 0.15 0.15 0.15 84 1007.9
20260502194517 10 315 3.2 4.8 0.15 0.15 0.15 82 1008.0
20260502193517 11 315 3.2 6.4 0.10 0.13 0.13 78 1008.0
20260502192517 11 270 4.8 11.3 0.05 0.08 0.08 71 1008.2
20260502191537 12 225 1.6 1.6 0.03 0.05 0.05 67 1007.9
20260502190517 12 225 4.8 12.9 0.00 0.03 0.03 61 1008.2
20260502185517 13 180 1.6 8.0 0.03 0.03 0.03 59 1007.9
20260502184517 13 293 4.8 8.0 0.03 0.03 0.03 54 1007.8
20260502183517 13 315 4.8 11.3 0.03 0.03 0.03 55 1007.6
20260502182517 13 270 4.8 9.7 0.03 0.03 0.03 52 1007.4
20260502181517 14 315 9.7 17.7 0.03 0.03 0.03 51 1007.2
20260502180637 14 270 8.0 16.1 0.03 0.03 0.03 50 1006.9
20260502170517 16 248 9.7 16.1 0.00 0.00 0.00 45 1006.3
20260502163517 16 270 6.4 12.9 0.00 0.00 0.00 46 1006.4
20260502162537 16 270 9.7 19.3 0.00 0.00 0.00 47 1006.3
20260502161517 16 270 8.0 17.7 0.00 0.00 0.00 49 1006.2
20260502160537 16 270 8.0 14.5 0.00 0.00 0.00 48 1006.2
20260502151537 19 225 9.7 19.3 0.00 0.00 0.00 32 1006.5
20260502150516 20 248 9.7 20.9 0.00 0.00 0.00 34 1006.6
20260502130517 21 225 16.1 27.4 0.00 0.00 0.00 28 1007.2
20260502123516 21 203 14.5 27.4 0.00 0.00 0.00 28 1007.5
20260502122517 22 203 14.5 30.6 0.00 0.00 0.00 28 1007.6
20260502121516 22 203 11.3 19.3 0.00 0.00 0.00 28 1007.7
20260502120537 21 225 16.1 27.4 0.00 0.00 0.00 25 1007.9
20260502115517 21 225 14.5 25.7 0.00 0.00 0.00 26 1008.0
20260502114517 21 248 16.1 30.6 0.00 0.00 0.00 25 1008.1
20260502113517 21 203 12.9 30.6 0.00 0.00 0.00 26 1008.2
20260502112516 21 225 11.3 19.3 0.00 0.00 0.00 24 1008.3
20260502111517 20 248 12.9 22.5 0.00 0.00 0.00 27 1008.5
20260502110516 21 225 12.9 24.1 0.00 0.00 0.00 25 1008.6
20260502105536 20 248 14.5 30.6 0.00 0.00 0.00 23 1008.7
20260502104516 20 203 17.7 29.0 0.00 0.00 0.00 25 1008.8
20260502103517 20 225 12.9 22.5 0.00 0.00 0.00 26 1008.9
20260502102516 20 203 16.1 24.1 0.00 0.00 0.00 26 1008.9
20260502101516 20 203 8.0 17.7 0.00 0.00 0.00 30 1009.2
20260502100517 19 225 12.9 27.4 0.00 0.00 0.00 26 1009.4
20260502090516 18 203 16.1 24.1 0.00 0.00 0.00 30 1010.0
20260502071516 15 203 12.9 24.1 0.00 0.00 0.00 42 1010.9
20260502070516 15 225 8.0 17.7 0.00 0.00 0.00 42 1011.0
20260502065516 15 225 8.0 20.9 0.00 0.00 0.00 44 1011.2
20260502064517 15 225 9.7 22.5 0.00 0.00 0.00 42 1011.1
20260502063516 15 225 8.0 19.3 0.00 0.00 0.00 44 1011.2
20260502062516 14 248 8.0 14.5 0.00 0.00 0.00 45 1011.2
20260502061516 13 225 9.7 19.3 0.00 0.00 0.00 46 1011.3
20260502060557 13 225 11.3 25.7 0.00 0.00 0.00 46 1011.2
20260502055517 13 248 9.7 20.9 0.00 0.00 0.00 47 1011.3
20260502054516 12 248 12.9 24.1 0.00 0.00 0.00 49 1011.3
20260502053516 12 225 9.7 17.7 0.00 0.00 0.00 51 1011.3
20260502052516 12 225 6.4 14.5 0.00 0.00 0.00 52 1011.3
20260502051516 11 270 6.4 16.1 0.00 0.00 0.00 54 1011.4
20260502050516 11 248 4.8 14.5 0.00 0.00 0.00 54 1011.4
20260502045516 11 225 8.0 17.7 0.00 0.00 0.00 56 1011.5
20260502044516 11 203 6.4 16.1 0.00 0.00 0.00 58 1011.5
20260502043516 10 180 6.4 16.1 0.00 0.00 0.00 60 1011.6
20260502042536 9 270 4.8 12.9 0.00 0.00 0.00 63 1011.6
20260502041516 8 68 3.2 6.4 0.00 0.00 0.00 66 1011.7
20260502040516 8 338 1.6 6.4 0.00 0.00 0.00 67 1011.8
20260502035516 7 315 1.6 3.2 0.00 0.00 0.00 70 1011.8
20260502034516 6 68 1.6 3.2 0.00 0.00 0.00 71 1011.8
20260502033516 6 23 1.6 3.2 0.00 0.00 0.00 72 1011.8
20260502032516 6 225 1.6 4.8 0.00 0.00 0.00 72 1011.9
20260502031536 6 23 3.2 4.8 0.00 0.00 0.00 73 1012.1
20260502030516 5 45 1.6 4.8 0.00 0.00 0.00 74 1012.1
20260502025516 5 225 1.6 4.8 0.00 0.00 0.00 74 1012.3
20260502024516 5 0.0 4.8 0.00 0.00 0.00 74 1012.4
20260502023516 5 0.0 1.6 0.00 0.00 0.00 73 1012.4
20260502022516 6 338 1.6 3.2 0.00 0.00 0.00 73 1012.5